Weather History for Ashland, WI

Change the Weather History Date:

Thursday, February 28, 2013

  Actual Average Record
Temperature  
Mean Temperature 26 °F -  
Max Temperature 28 °F 33 °F 51 °F (1985)
Min Temperature 23 °F 12 °F -22 °F (1962)
Degree Days  
Heating Degree Days 40    
Moisture  
Dew Point 19 °F    
Average Humidity 77    
Maximum Humidity 84    
Minimum Humidity 65    
Precipitation  
Precipitation 0.00 in - - ()
Sea Level Pressure  
Sea Level Pressure 30.22 in    
Wind  
Wind Speed 17 mph (NE)    
Max Wind Speed 21 mph    
Max Gust Speed 28 mph    
Visibility 8 miles    
Events Snow    
Averages and records for this station are not official NWS values.
T = Trace of Precipitation, MM = Missing Value Source: NWS Daily Summary

Daily Weather History Graph

Daily Weather History Graph

Search for Another Location

Airport:

Trip Planner

Search our weather history database for the weather conditions in past years. The results will help you decide how hot, cold, wet, or windy it might be!

Date:

Astronomy

Feb. 28, 2013 Rise Set
Actual Time 6:44 AM CST 5:48 PM CST
Civil Twilight 6:14 AM CST 6:18 PM CST
Nautical Twilight 5:39 AM CST 6:53 PM CST
Astronomical Twilight 5:04 AM CST 7:28 PM CST
Moon 9:32 PM CST (2/28) 7:40 AM CST (2/28)
Length of Visible Light 12h 04m
Length of Day
11h 04m
Waning Gibbous, 90% of the Moon is Illuminated
Feb 28
Waning Gibbous
Mar 4
Last Quarter
Mar 11
New
Mar 19
First Quarter
Mar 27
Full

Hourly Weather History & Observations

Time (CST) Temp. Windchill Dew Point Humidity Pressure Visibility Wind Dir Wind Speed Gust Speed Precip Events Conditions
12:53 AM 28.0 °F 14.6 °F 21.9 °F 78% 30.08 in 10.0 mi NNE 20.7 mph 27.6 mph N/A   Overcast
1:45 AM 28.4 °F 16.2 °F 21.2 °F 74% 30.05 in 10.0 mi NNE 17.3 mph - N/A   Overcast
1:53 AM 28.0 °F 16.1 °F 21.0 °F 75% 30.09 in 10.0 mi NNE 16.1 mph - N/A   Overcast
2:53 AM 27.0 °F 14.7 °F 21.0 °F 78% 30.10 in 10.0 mi North 16.1 mph - N/A   Overcast
3:53 AM 26.1 °F 14.0 °F 21.9 °F 84% 30.12 in 10.0 mi NNE 15.0 mph - N/A   Overcast
4:53 AM 26.1 °F 13.6 °F 21.9 °F 84% 30.13 in 10.0 mi NNE 16.1 mph 24.2 mph N/A   Overcast
6:53 AM 26.1 °F 13.1 °F 19.9 °F 78% 30.17 in 10.0 mi NNE 17.3 mph - N/A   Overcast
8:53 AM 25.0 °F 12.2 °F 19.9 °F 81% 30.20 in 10.0 mi NNE 16.1 mph - N/A   Overcast
9:53 AM 25.0 °F 12.6 °F 19.9 °F 81% 30.20 in 2.0 mi NNE 15.0 mph - 0.00 in Snow Light Snow
10:00 AM 24.8 °F 12.4 °F 19.4 °F 80% 30.17 in 1.2 mi NNE 15.0 mph - 0.00 in Snow Light Snow
10:04 AM 24.8 °F 12.9 °F 19.4 °F 80% 30.17 in 3.0 mi NNE 13.8 mph - 0.00 in Snow Light Snow
10:53 AM 25.0 °F 12.2 °F 18.0 °F 75% 30.22 in - NE 16.1 mph 26.5 mph 0.00 in   Overcast
11:53 AM 25.0 °F 11.3 °F 19.0 °F 78% 30.24 in 8.0 mi NE 18.4 mph - 0.00 in   Overcast
12:53 PM 25.0 °F 10.9 °F 19.0 °F 78% 30.24 in 6.0 mi NE 19.6 mph 27.6 mph N/A   Haze
1:53 PM 24.1 °F 10.1 °F 18.0 °F 77% 30.25 in 7.0 mi NE 18.4 mph 24.2 mph N/A   Overcast
2:53 PM 24.1 °F 10.1 °F 17.1 °F 75% 30.26 in 5.0 mi NE 18.4 mph 25.3 mph N/A   Haze
3:53 PM 24.1 °F 10.6 °F 16.0 °F 71% 30.27 in 10.0 mi NE 17.3 mph 23.0 mph N/A   Overcast
4:53 PM 23.0 °F 10.6 °F 16.0 °F 74% 30.29 in 10.0 mi ENE 13.8 mph - N/A   Overcast
6:53 PM 24.1 °F 12.0 °F 17.1 °F 75% 30.31 in 10.0 mi NE 13.8 mph - N/A   Overcast
7:53 PM 23.0 °F 12.4 °F 17.1 °F 78% 30.32 in 10.0 mi ENE 10.4 mph - 0.00 in   Overcast
8:53 PM 23.0 °F 11.7 °F 16.0 °F 74% 30.32 in 10.0 mi ENE 11.5 mph - N/A   Overcast
9:53 PM 24.1 °F 11.5 °F 15.1 °F 69% 30.32 in 10.0 mi NE 15.0 mph - N/A   Overcast
10:53 PM 24.1 °F 11.0 °F 14.0 °F 65% 30.33 in 10.0 mi ENE 16.1 mph - N/A   Overcast
11:53 PM 23.0 °F 9.6 °F 16.0 °F 74% 30.33 in 10.0 mi NE 16.1 mph - 0.00 in   Overcast